ARIANE 5 R/B, 41593

Orbit data source: Space-Track

ARIANE 5 R/B, 41593 is space debris in HEO originally from a launch on Sat, 18 Jun 2016 UTC launched from the French Guiana (FRGUI). Debris objects in space refer to the collection of defunct objects orbiting the Earth. Examples of debris include non-operational satellites, rocket bodies, and fragments generated from explosions, collisions, or faulty payload assembly.

Loading next visibility...
Identifier
41593, 2016-039C
Orbit
HEO
Last TLE update
17 hours ago
Origin
Manufacturer
Airbus Safran
Mission
Spacecraft
Bus & Motor
ESC-A, Unknown motor
Mass
~5,000 kg wet, ~5,000 kg dry
Launch date (UTC)
2016-06-18 (9 years ago)
Launch vehicle
Unknown
Launch site
French Guiana (FRGUI)
Object type
Payload
Rocket body
Debris
Shape & HBR
Cyl + 1 Nozzle, 7 m
Radar Cross Section
41.627 m², Large (>1 m²)

Expand to show TLE details & history

TLE from 17 hours ago
0 ARIANE 5 R/B
1 41593U 16039C   25128.52353074  .00001089  00000-0  63523-3 0  9998
2 41593   5.9656 112.4927 7146599  33.4206 355.9567  2.42470760 75789
Epoch: 2025-05-08T12:33Z
Definitive object data (Epoch: 2025-05-08T12:33:53.055Z)
Latitude
0.00029°
Longitude
57.32211°
Altitude
818.933 km
Speed
9.681 km/s
True Right ascension
07h 29m 32s
True Declination
0° 00' 01"
Sunlit
Object was in daylight at TLE epoch
Visualization TLE readout
Latitude
-4.5781°
Longitude
-72.72045°
Altitude
30,099.316 km
Speed
2.196 km/s
Apparent Right ascension
23h 06m 57s
Apparent Declination
-9° 49' 44"
Sunlit
Object is in daylight
Visualization observer readout
Local Sidereal Time
13:25:37
Azimuth
55.231° ENE
Elevation
-46.979°
Doppler factor
1
Orbital elements
Apogee altitude
33,761.574 km
Perigee altitude
301.595 km
Semi-major axis
23,409.721 km
Eccentricity
0.7146599
Inclination
5.9656°
RAAN
112.4927°
Arg. of periapsis
33.4206°
True anomaly
326.87565°
Mean anomaly
355.9567°
Eccentric anomaly
346.1656°
Mean motion
0.60597 °/min
BSTAR
0.00063523
Orbital period
594.09 mins
Loading maneuver chart data...
Loading SW <> Apogee altitude chart data...
Loading historical data...
Loading historical data...
Loading historical data...
Loading historical data...
Loading historical data...
Loading historical data...
Loading historical data...
Other satellites on launch #39 in the year 2016 (2016-06-18 UTC)

ARIANE 5 R/B Visibility forecast

Observer location: undefined°, undefined°

Span
Click to sort rows by Start time (UTC) header in descending order
Start Az.
Max El. time (UTC)
Max El. Az.
Max El.
End time (UTC)
End Az.
543 mins2025-05-09 08:49:58.495Z222.731° SW2025-05-09 13:02:58.495Z173.006° S32.596°2025-05-09 17:52:58.495Z152.625° SSE
|